Weather in Burukshun

Russia / Stavropol Krai     45°54′32″N   42°32′58″E
temp.,
°C
wind,
m/s
gust,
m/s
humid.,
%
clouds,
%
prec.,
mm/h
press.,
hPa
HPBL,
m
22 october, fri
fri2200:00+9ssw34535 0.0 102246
03:00+8ssw33425 0.0 102124
06:00+8ssw33405 0.0 102018
09:00+14ssw23305 0.0 1020168
12:00+20sw33220 0.0 1020657
15:00+22wsw45200 0.0 10191046
18:00+16sw33340 0.0 101926
21:00+14sw48400 0.0 1020114
23 october, sat
sat2300:00+12wsw36660 0.0 102079
03:00+10wsw33760 0.0 102042
06:00+9sw34810 0.0 102044
09:00+15sw46440 0.0 1020256
12:00+21wsw57326 0.0 10191119
15:00+22wsw572567 0.0 10181409
18:00+16wsw3338100 0.0 101827
21:00+15wsw334898 0.0 101841
24 october, sun
sun2400:00+13wsw4859100 0.0 1018151
03:00+12wsw41069100 0.0 1018247
06:00+11wsw3780100 0.0 1018186
09:00+13wnw3477100 0.0 1018396
12:00+12n4585100 0.2 1018378
15:00+12nnw4684100 0.7 1018517
18:00+11nw3780100 0.4 1019608
21:00+7nw5982100 1.3 1019510
25 october, mon
mon2500:00+6nw5981100 4.2 1020813
03:00+7wsw4879100 5.1 1020500
06:00+6w61079100 0.0 1021511
09:00+7wnw69535 0.0 1023835
12:00+7nw81063100 0.0 10241346
15:00+7nw7959100 0.1 10261497
18:00+6nw586086 0.1 10291132
21:00+4nw49635 0.1 1030267
26 october, tue
tue2600:00+2nw36715 0.0 1031139
03:00+1wnw337334 0.0 103253
06:000wnw337591 0.0 103342
09:00+4nnw236434 0.0 1034300
12:00+7ne335077 0.0 10331404
15:00+8ne33445 0.0 10321348
18:00+5e33490 0.0 103331
21:00+4e34550 0.0 103367